Year,Month,Day,Hour,Minute,Value (Times are PST for temperature in C)
2017,11,26,00,00,9.00
2017,11,26,00,01,9.00
2017,11,26,00,02,9.00
2017,11,26,00,03,9.00
2017,11,26,00,04,9.10
2017,11,26,00,05,9.10
2017,11,26,00,06,9.10
2017,11,26,00,07,9.10
2017,11,26,00,08,9.20
2017,11,26,00,09,9.20
2017,11,26,00,10,9.20
2017,11,26,00,11,9.20
2017,11,26,00,12,9.20
2017,11,26,00,13,9.20
2017,11,26,00,14,9.20
2017,11,26,00,15,9.30
2017,11,26,00,16,9.30
2017,11,26,00,17,9.30
2017,11,26,00,18,9.30
2017,11,26,00,19,9.30
2017,11,26,00,20,9.30
2017,11,26,00,21,9.40
2017,11,26,00,22,9.40
2017,11,26,00,23,9.40
2017,11,26,00,24,9.40
2017,11,26,00,25,9.40
2017,11,26,00,26,9.40
2017,11,26,00,27,9.50
2017,11,26,00,28,9.50
2017,11,26,00,29,9.50
2017,11,26,00,30,9.50
2017,11,26,00,31,9.50
2017,11,26,00,32,9.50
2017,11,26,00,33,9.60
2017,11,26,00,34,9.60
2017,11,26,00,35,9.60
2017,11,26,00,36,9.60
2017,11,26,00,37,9.60
2017,11,26,00,38,9.60
2017,11,26,00,39,9.60
2017,11,26,00,40,9.60
2017,11,26,00,41,9.60
2017,11,26,00,42,9.60
2017,11,26,00,43,9.60
2017,11,26,00,44,9.60
2017,11,26,00,45,9.60
2017,11,26,00,46,9.60
2017,11,26,00,47,9.70
2017,11,26,00,48,9.70
2017,11,26,00,49,9.70
2017,11,26,00,50,9.70
2017,11,26,00,51,9.70
2017,11,26,00,52,9.70
2017,11,26,00,53,9.70
2017,11,26,00,54,9.80
2017,11,26,00,55,9.80
2017,11,26,00,56,9.80
2017,11,26,00,57,9.80
2017,11,26,00,58,9.80
2017,11,26,00,59,9.80
2017,11,26,01,00,9.90
2017,11,26,01,01,9.90
2017,11,26,01,02,9.90
2017,11,26,01,03,10.00
2017,11,26,01,04,10.00
2017,11,26,01,05,10.10
2017,11,26,01,06,10.10
2017,11,26,01,07,10.20
2017,11,26,01,08,10.20
2017,11,26,01,09,10.20
2017,11,26,01,10,10.20
2017,11,26,01,11,10.30
2017,11,26,01,12,10.30
2017,11,26,01,13,10.30
2017,11,26,01,14,10.40
2017,11,26,01,15,10.40
2017,11,26,01,16,10.50
2017,11,26,01,17,10.50
2017,11,26,01,18,10.60
2017,11,26,01,19,10.60
2017,11,26,01,20,10.60
2017,11,26,01,21,10.70
2017,11,26,01,22,10.70
2017,11,26,01,23,10.70
2017,11,26,01,24,10.80
2017,11,26,01,25,10.80
2017,11,26,01,26,10.90
2017,11,26,01,27,11.00
2017,11,26,01,28,11.10
2017,11,26,01,29,11.20
2017,11,26,01,30,11.30
2017,11,26,01,31,11.40
2017,11,26,01,32,11.50
2017,11,26,01,33,11.60
2017,11,26,01,34,11.70
2017,11,26,01,35,11.70
2017,11,26,01,36,11.70
2017,11,26,01,37,11.70
2017,11,26,01,38,11.70
2017,11,26,01,39,11.70
2017,11,26,01,40,11.70
2017,11,26,01,41,11.70
2017,11,26,01,42,11.70
2017,11,26,01,43,11.70
2017,11,26,01,44,11.60
2017,11,26,01,45,11.60
2017,11,26,01,46,11.60
2017,11,26,01,47,11.60
2017,11,26,01,48,11.60
2017,11,26,01,49,11.60
2017,11,26,01,50,11.60
2017,11,26,01,51,11.60
2017,11,26,01,52,11.60
2017,11,26,01,53,11.50
2017,11,26,01,54,11.50
2017,11,26,01,55,11.50
2017,11,26,01,56,11.60
2017,11,26,01,57,11.60
2017,11,26,01,58,11.70
2017,11,26,01,59,11.70
2017,11,26,02,00,11.70
2017,11,26,02,01,11.70
2017,11,26,02,02,11.70
2017,11,26,02,03,11.70
2017,11,26,02,04,11.70
2017,11,26,02,05,11.70
2017,11,26,02,06,11.60
2017,11,26,02,07,11.60
2017,11,26,02,08,11.70
2017,11,26,02,09,11.70
2017,11,26,02,10,11.70
2017,11,26,02,11,11.70
2017,11,26,02,12,11.80
2017,11,26,02,13,11.80
2017,11,26,02,14,11.80
2017,11,26,02,15,11.80
2017,11,26,02,16,11.80
2017,11,26,02,17,11.80
2017,11,26,02,18,11.90
2017,11,26,02,19,11.90
2017,11,26,02,20,11.90
2017,11,26,02,21,12.00
2017,11,26,02,22,12.00
2017,11,26,02,23,12.00
2017,11,26,02,24,12.10
2017,11,26,02,25,12.10
2017,11,26,02,26,12.10
2017,11,26,02,27,12.20
2017,11,26,02,28,12.30
2017,11,26,02,29,12.30
2017,11,26,02,30,12.40
2017,11,26,02,31,12.40
2017,11,26,02,32,12.50
2017,11,26,02,33,12.60
2017,11,26,02,34,12.60
2017,11,26,02,35,12.70
2017,11,26,02,36,12.70
2017,11,26,02,37,12.80
2017,11,26,02,38,12.80
2017,11,26,02,39,12.90
2017,11,26,02,40,12.90
2017,11,26,02,41,12.90
2017,11,26,02,42,12.90
2017,11,26,02,43,12.90
2017,11,26,02,44,12.90
2017,11,26,02,45,12.90
2017,11,26,02,46,12.90
2017,11,26,02,47,12.90
2017,11,26,02,48,12.90
2017,11,26,02,49,12.90
2017,11,26,02,50,12.90
2017,11,26,02,51,12.90
2017,11,26,02,52,12.90
2017,11,26,02,53,12.90
2017,11,26,02,54,12.90
2017,11,26,02,55,12.90
2017,11,26,02,56,12.80
2017,11,26,02,57,12.80
2017,11,26,02,58,12.80
2017,11,26,02,59,12.80
2017,11,26,03,00,12.80
2017,11,26,03,01,12.70
2017,11,26,03,02,12.70
2017,11,26,03,03,12.70
2017,11,26,03,04,12.70
2017,11,26,03,05,12.70
2017,11,26,03,06,12.60
2017,11,26,03,07,12.60
2017,11,26,03,08,12.50
2017,11,26,03,09,12.50
2017,11,26,03,10,12.50
2017,11,26,03,11,12.40
2017,11,26,03,12,12.40
2017,11,26,03,13,12.40
2017,11,26,03,14,12.30
2017,11,26,03,15,12.30
2017,11,26,03,16,12.30
2017,11,26,03,17,12.30
2017,11,26,03,18,12.30
2017,11,26,03,19,12.30
2017,11,26,03,20,12.20
2017,11,26,03,21,12.20
2017,11,26,03,22,12.20
2017,11,26,03,23,12.20
2017,11,26,03,24,12.10
2017,11,26,03,25,12.10
2017,11,26,03,26,12.10
2017,11,26,03,27,12.10
2017,11,26,03,28,12.00
2017,11,26,03,29,12.00
2017,11,26,03,30,12.00
2017,11,26,03,31,12.00
2017,11,26,03,32,12.00
2017,11,26,03,33,12.00
2017,11,26,03,34,12.00
2017,11,26,03,35,11.90
2017,11,26,03,36,11.90
2017,11,26,03,37,11.90
2017,11,26,03,38,11.80
2017,11,26,03,39,11.80
2017,11,26,03,40,11.70
2017,11,26,03,41,11.60
2017,11,26,03,42,11.50
2017,11,26,03,43,11.30
2017,11,26,03,44,11.20
2017,11,26,03,45,11.10
2017,11,26,03,46,11.00
2017,11,26,03,47,10.90
2017,11,26,03,48,10.90
2017,11,26,03,49,10.80
2017,11,26,03,50,10.70
2017,11,26,03,51,10.60
2017,11,26,03,52,10.60
2017,11,26,03,53,10.60
2017,11,26,03,54,10.50
2017,11,26,03,55,10.50
2017,11,26,03,56,10.40
2017,11,26,03,57,10.40
2017,11,26,03,58,10.40
2017,11,26,03,59,10.40
2017,11,26,04,00,10.40
2017,11,26,04,01,10.40
2017,11,26,04,02,10.30
2017,11,26,04,03,10.30
2017,11,26,04,04,10.30
2017,11,26,04,05,10.30
2017,11,26,04,06,10.30
2017,11,26,04,07,10.30
2017,11,26,04,08,10.30
2017,11,26,04,09,10.30
2017,11,26,04,10,10.30
2017,11,26,04,11,10.30
2017,11,26,04,12,10.30
2017,11,26,04,13,10.30
2017,11,26,04,14,10.30
2017,11,26,04,15,10.40
2017,11,26,04,16,10.40
2017,11,26,04,17,10.30
2017,11,26,04,18,10.40
2017,11,26,04,19,10.40
2017,11,26,04,20,10.40
2017,11,26,04,21,10.40
2017,11,26,04,22,10.40
2017,11,26,04,23,10.40
2017,11,26,04,24,10.40
2017,11,26,04,25,10.40
2017,11,26,04,26,10.40
2017,11,26,04,27,10.40
2017,11,26,04,28,10.40
2017,11,26,04,29,10.50
2017,11,26,04,30,10.50
2017,11,26,04,31,10.50
2017,11,26,04,32,10.50
2017,11,26,04,33,10.60
2017,11,26,04,34,10.60
2017,11,26,04,35,10.60
2017,11,26,04,36,10.60
2017,11,26,04,37,10.60
2017,11,26,04,38,10.60
2017,11,26,04,39,10.60
2017,11,26,04,40,10.60
2017,11,26,04,41,10.50
2017,11,26,04,42,10.60
2017,11,26,04,43,10.50
2017,11,26,04,44,10.50
2017,11,26,04,45,10.50
2017,11,26,04,46,10.50
2017,11,26,04,47,10.50
2017,11,26,04,48,10.50
2017,11,26,04,49,10.40
2017,11,26,04,50,10.40
2017,11,26,04,51,10.40
2017,11,26,04,52,10.40
2017,11,26,04,53,10.40
2017,11,26,04,54,10.40
2017,11,26,04,55,10.40
2017,11,26,04,56,10.40
2017,11,26,04,57,10.40
2017,11,26,04,58,10.40
2017,11,26,04,59,10.40
2017,11,26,05,00,10.40
2017,11,26,05,01,10.40
2017,11,26,05,02,10.40
2017,11,26,05,03,10.30
2017,11,26,05,04,10.30
2017,11,26,05,05,10.30
2017,11,26,05,06,10.30
2017,11,26,05,07,10.30
2017,11,26,05,08,10.30
2017,11,26,05,09,10.30
2017,11,26,05,10,10.40
2017,11,26,05,11,10.40
2017,11,26,05,12,10.40
2017,11,26,05,13,10.40
2017,11,26,05,14,10.40
2017,11,26,05,15,10.50
2017,11,26,05,16,10.50
2017,11,26,05,17,10.50
2017,11,26,05,18,10.50
2017,11,26,05,19,10.50
2017,11,26,05,20,10.60
2017,11,26,05,21,10.60
2017,11,26,05,22,10.60
2017,11,26,05,23,10.60
2017,11,26,05,24,10.60
2017,11,26,05,25,10.60
2017,11,26,05,26,10.60
2017,11,26,05,27,10.60
2017,11,26,05,28,10.60
2017,11,26,05,29,10.60
2017,11,26,05,30,10.60
2017,11,26,05,31,10.60
2017,11,26,05,32,10.60
2017,11,26,05,33,10.60
2017,11,26,05,34,10.60
2017,11,26,05,35,10.60
2017,11,26,05,36,10.60
2017,11,26,05,37,10.60
2017,11,26,05,38,10.60
2017,11,26,05,39,10.60
2017,11,26,05,40,10.60
2017,11,26,05,41,10.60
2017,11,26,05,42,10.60
2017,11,26,05,43,10.60
2017,11,26,05,44,10.60
2017,11,26,05,45,10.60
2017,11,26,05,46,10.60
2017,11,26,05,47,10.60
2017,11,26,05,48,10.60
2017,11,26,05,49,10.60
2017,11,26,05,50,10.50
2017,11,26,05,51,10.50
2017,11,26,05,52,10.40
2017,11,26,05,53,10.40
2017,11,26,05,54,10.40
2017,11,26,05,55,10.30
2017,11,26,05,56,10.30
2017,11,26,05,57,10.30
2017,11,26,05,58,10.30
2017,11,26,05,59,10.20
2017,11,26,06,00,10.20
2017,11,26,06,01,10.20
2017,11,26,06,02,10.20
2017,11,26,06,03,10.20
2017,11,26,06,04,10.10
2017,11,26,06,05,10.10
2017,11,26,06,06,10.10
2017,11,26,06,07,10.10
2017,11,26,06,08,10.10
2017,11,26,06,09,10.20
2017,11,26,06,10,10.30
2017,11,26,06,11,10.30
2017,11,26,06,12,10.30
2017,11,26,06,13,10.40
2017,11,26,06,14,10.40
2017,11,26,06,15,10.50
2017,11,26,06,16,10.60
2017,11,26,06,17,10.60
2017,11,26,06,18,10.60
2017,11,26,06,19,10.60
2017,11,26,06,20,10.60
2017,11,26,06,21,10.70
2017,11,26,06,22,10.70
2017,11,26,06,23,10.70
2017,11,26,06,24,10.70
2017,11,26,06,25,10.70
2017,11,26,06,26,10.60
2017,11,26,06,27,10.60
2017,11,26,06,28,10.60
2017,11,26,06,29,10.60
2017,11,26,06,30,10.60
2017,11,26,06,31,10.60
2017,11,26,06,32,10.60
2017,11,26,06,33,10.60
2017,11,26,06,34,10.60
2017,11,26,06,35,10.60
2017,11,26,06,36,10.60
2017,11,26,06,37,10.60
2017,11,26,06,38,10.60
2017,11,26,06,39,10.70
2017,11,26,06,40,10.70
2017,11,26,06,41,10.60
2017,11,26,06,42,10.60
2017,11,26,06,43,10.60
2017,11,26,06,44,10.60
2017,11,26,06,45,10.50
2017,11,26,06,46,10.50
2017,11,26,06,47,10.50
2017,11,26,06,48,10.50
2017,11,26,06,49,10.50
2017,11,26,06,50,10.40
2017,11,26,06,51,10.40
2017,11,26,06,52,10.40
2017,11,26,06,53,10.40
2017,11,26,06,54,10.40
2017,11,26,06,55,10.30
2017,11,26,06,56,10.30
2017,11,26,06,57,10.30
2017,11,26,06,58,10.30
2017,11,26,06,59,10.30
2017,11,26,07,00,10.20
2017,11,26,07,01,10.20
2017,11,26,07,02,10.20
2017,11,26,07,03,10.10
2017,11,26,07,04,10.10
2017,11,26,07,05,10.00
2017,11,26,07,06,10.00
2017,11,26,07,07,9.90
2017,11,26,07,08,9.90
2017,11,26,07,09,9.90
2017,11,26,07,10,9.90
2017,11,26,07,11,9.90
2017,11,26,07,12,9.90
2017,11,26,07,13,9.80
2017,11,26,07,14,9.80
2017,11,26,07,15,9.80
2017,11,26,07,16,9.80
2017,11,26,07,17,9.80
2017,11,26,07,18,9.80
2017,11,26,07,19,9.80
2017,11,26,07,20,9.80
2017,11,26,07,21,9.80
2017,11,26,07,22,9.80
2017,11,26,07,23,9.80
2017,11,26,07,24,9.80
2017,11,26,07,25,9.80
2017,11,26,07,26,9.80
2017,11,26,07,27,9.90
2017,11,26,07,28,9.90
2017,11,26,07,29,9.90
2017,11,26,07,30,9.90
2017,11,26,07,31,9.90
2017,11,26,07,32,9.90
2017,11,26,07,33,9.90
2017,11,26,07,34,9.90
2017,11,26,07,35,9.90
2017,11,26,07,36,9.90
2017,11,26,07,37,9.90
2017,11,26,07,38,9.90
2017,11,26,07,39,9.90
2017,11,26,07,40,9.90
2017,11,26,07,41,9.90
2017,11,26,07,42,10.00
2017,11,26,07,43,10.00
2017,11,26,07,44,10.10
2017,11,26,07,45,10.10
2017,11,26,07,46,10.10
2017,11,26,07,47,10.20
2017,11,26,07,48,10.20
2017,11,26,07,49,10.20
2017,11,26,07,50,10.20
2017,11,26,07,51,10.20
2017,11,26,07,52,10.30
2017,11,26,07,53,10.30
2017,11,26,07,54,10.40
2017,11,26,07,55,10.40
2017,11,26,07,56,10.50
2017,11,26,07,57,10.50
2017,11,26,07,58,10.50
2017,11,26,07,59,10.60
2017,11,26,08,00,10.50
2017,11,26,08,01,10.50
2017,11,26,08,02,10.50
2017,11,26,08,03,10.50
2017,11,26,08,04,10.50
2017,11,26,08,05,10.50
2017,11,26,08,06,10.50
2017,11,26,08,07,10.60
2017,11,26,08,08,10.60
2017,11,26,08,09,10.60
2017,11,26,08,10,10.60
2017,11,26,08,11,10.60
2017,11,26,08,12,10.70
2017,11,26,08,13,10.70
2017,11,26,08,14,10.70
2017,11,26,08,15,10.70
2017,11,26,08,16,10.70
2017,11,26,08,17,10.70
2017,11,26,08,18,10.70
2017,11,26,08,19,10.70
2017,11,26,08,20,10.60
2017,11,26,08,21,10.60
2017,11,26,08,22,10.60
2017,11,26,08,23,10.60
2017,11,26,08,24,10.70
2017,11,26,08,25,10.80
2017,11,26,08,26,10.90
2017,11,26,08,27,10.90
2017,11,26,08,28,10.90
2017,11,26,08,29,10.90
2017,11,26,08,30,11.00
2017,11,26,08,31,11.00
2017,11,26,08,32,11.10
2017,11,26,08,33,11.10
2017,11,26,08,34,11.10
2017,11,26,08,35,11.20
2017,11,26,08,36,11.30
2017,11,26,08,37,11.30
2017,11,26,08,38,11.30
2017,11,26,08,39,11.40
2017,11,26,08,40,11.40
2017,11,26,08,41,11.40
2017,11,26,08,42,11.40
2017,11,26,08,43,11.40
2017,11,26,08,44,11.40
2017,11,26,08,45,11.40
2017,11,26,08,46,11.40
2017,11,26,08,47,11.30
2017,11,26,08,48,11.30
2017,11,26,08,49,11.30
2017,11,26,08,50,11.30
2017,11,26,08,51,11.20
2017,11,26,08,52,11.20
2017,11,26,08,53,11.20
2017,11,26,08,54,11.20
2017,11,26,08,55,11.20
2017,11,26,08,56,11.20
2017,11,26,08,57,11.20
2017,11,26,08,58,11.20
2017,11,26,08,59,11.20
2017,11,26,09,00,11.20
2017,11,26,09,01,11.20
2017,11,26,09,02,11.20
2017,11,26,09,03,11.10
2017,11,26,09,04,11.00
2017,11,26,09,05,10.90
2017,11,26,09,06,10.90
2017,11,26,09,07,10.90
2017,11,26,09,08,10.90
2017,11,26,09,09,10.90
2017,11,26,09,10,11.00
2017,11,26,09,11,11.00
2017,11,26,09,12,11.00
2017,11,26,09,13,11.00
2017,11,26,09,14,11.00
2017,11,26,09,15,11.10
2017,11,26,09,16,11.10
2017,11,26,09,17,11.10
2017,11,26,09,18,11.20
2017,11,26,09,19,11.20
2017,11,26,09,20,11.20
2017,11,26,09,21,11.20
2017,11,26,09,22,11.20
2017,11,26,09,23,11.20
2017,11,26,09,24,11.20
2017,11,26,09,25,11.20
2017,11,26,09,26,11.20
2017,11,26,09,27,11.20
2017,11,26,09,28,11.10
2017,11,26,09,29,11.10
2017,11,26,09,30,11.10
2017,11,26,09,31,11.00
2017,11,26,09,32,11.00
2017,11,26,09,33,11.00
2017,11,26,09,34,11.00
2017,11,26,09,35,10.90
2017,11,26,09,36,10.90
2017,11,26,09,37,10.90
2017,11,26,09,38,10.90
2017,11,26,09,39,10.90
2017,11,26,09,40,10.90
2017,11,26,09,41,10.90
2017,11,26,09,42,10.90
2017,11,26,09,43,10.90
2017,11,26,09,44,10.90
2017,11,26,09,45,10.90
2017,11,26,09,46,10.90
2017,11,26,09,47,10.90
2017,11,26,09,48,10.90
2017,11,26,09,49,10.90
2017,11,26,09,50,10.90
2017,11,26,09,51,10.90
2017,11,26,09,52,10.90
2017,11,26,09,53,10.90
2017,11,26,09,54,11.00
2017,11,26,09,55,11.00
2017,11,26,09,56,11.00
2017,11,26,09,57,11.00
2017,11,26,09,58,11.00
2017,11,26,09,59,11.00
2017,11,26,10,00,11.00
2017,11,26,10,01,11.00
2017,11,26,10,02,11.00
2017,11,26,10,03,11.00
2017,11,26,10,04,11.00
2017,11,26,10,05,11.00
2017,11,26,10,06,11.00
2017,11,26,10,07,11.00
2017,11,26,10,08,11.00
2017,11,26,10,09,11.00
2017,11,26,10,10,10.90
2017,11,26,10,11,10.90
2017,11,26,10,12,10.90
2017,11,26,10,13,10.90
2017,11,26,10,14,10.80
2017,11,26,10,15,10.80
2017,11,26,10,16,10.80
2017,11,26,10,17,10.80
2017,11,26,10,18,10.80
2017,11,26,10,19,10.70
2017,11,26,10,20,10.70
2017,11,26,10,21,10.60
2017,11,26,10,22,10.60
2017,11,26,10,23,10.50
2017,11,26,10,24,10.40
2017,11,26,10,25,10.40
2017,11,26,10,26,10.30
2017,11,26,10,27,10.30
2017,11,26,10,28,10.20
2017,11,26,10,29,10.20
2017,11,26,10,30,10.20
2017,11,26,10,31,10.10
2017,11,26,10,32,10.10
2017,11,26,10,33,10.00
2017,11,26,10,34,9.90
2017,11,26,10,35,9.90
2017,11,26,10,36,9.90
2017,11,26,10,37,9.80
2017,11,26,10,38,9.70
2017,11,26,10,39,9.70
2017,11,26,10,40,9.70
2017,11,26,10,41,9.70
2017,11,26,10,42,9.60
2017,11,26,10,43,9.60
2017,11,26,10,44,9.60
2017,11,26,10,45,9.60
2017,11,26,10,46,9.60
2017,11,26,10,47,9.60
2017,11,26,10,48,9.60
2017,11,26,10,49,9.60
2017,11,26,10,50,9.60
2017,11,26,10,51,9.70
2017,11,26,10,52,9.70
2017,11,26,10,53,9.70
2017,11,26,10,54,9.60
2017,11,26,10,55,9.70
2017,11,26,10,56,9.70
2017,11,26,10,57,9.70
2017,11,26,10,58,9.70
2017,11,26,10,59,9.70
2017,11,26,11,00,9.70
2017,11,26,11,01,9.70
2017,11,26,11,02,9.70
2017,11,26,11,03,9.80
2017,11,26,11,04,9.80
2017,11,26,11,05,9.90
2017,11,26,11,06,10.00
2017,11,26,11,07,10.00
2017,11,26,11,08,10.00
2017,11,26,11,09,10.00
2017,11,26,11,10,10.00
2017,11,26,11,11,10.00
2017,11,26,11,12,9.90
2017,11,26,11,13,9.90
2017,11,26,11,14,9.90
2017,11,26,11,15,9.90
2017,11,26,11,16,9.90
2017,11,26,11,17,9.90
2017,11,26,11,18,9.90
2017,11,26,11,19,9.90
2017,11,26,11,20,9.90
2017,11,26,11,21,9.90
2017,11,26,11,22,9.80
2017,11,26,11,23,9.80
2017,11,26,11,24,9.80
2017,11,26,11,25,9.80
2017,11,26,11,26,9.80
2017,11,26,11,27,9.80
2017,11,26,11,28,9.80
2017,11,26,11,29,9.70
2017,11,26,11,30,9.70
2017,11,26,11,31,9.70
2017,11,26,11,32,9.60
2017,11,26,11,33,9.60
2017,11,26,11,34,9.60
2017,11,26,11,35,9.60
2017,11,26,11,36,9.60
2017,11,26,11,37,9.50
2017,11,26,11,38,9.50
2017,11,26,11,39,9.50
2017,11,26,11,40,9.40
2017,11,26,11,41,9.40
2017,11,26,11,42,9.40
2017,11,26,11,43,9.30
2017,11,26,11,44,9.30
2017,11,26,11,45,9.30
2017,11,26,11,46,9.30
2017,11,26,11,47,9.30
2017,11,26,11,48,9.30
2017,11,26,11,49,9.30
2017,11,26,11,50,9.30
2017,11,26,11,51,9.30
2017,11,26,11,52,9.30
2017,11,26,11,53,9.20
2017,11,26,11,54,9.20
2017,11,26,11,55,9.20
2017,11,26,11,56,9.20
2017,11,26,11,57,9.20
2017,11,26,11,58,9.20
2017,11,26,11,59,9.20
2017,11,26,12,00,9.20
2017,11,26,12,01,9.20
2017,11,26,12,02,9.20
2017,11,26,12,03,9.20
2017,11,26,12,04,9.20
2017,11,26,12,05,9.20
2017,11,26,12,06,9.20
2017,11,26,12,07,9.10
2017,11,26,12,08,9.10
2017,11,26,12,09,9.10
2017,11,26,12,10,9.10
2017,11,26,12,11,9.20
2017,11,26,12,12,9.20
2017,11,26,12,13,9.20
2017,11,26,12,14,9.20
2017,11,26,12,15,9.20
2017,11,26,12,16,9.20
2017,11,26,12,17,9.20
2017,11,26,12,18,9.20
2017,11,26,12,19,9.20
2017,11,26,12,20,9.20
2017,11,26,12,21,9.20
2017,11,26,12,22,9.20
2017,11,26,12,23,9.30
2017,11,26,12,24,9.30
2017,11,26,12,25,9.30
2017,11,26,12,26,9.30
2017,11,26,12,27,9.30
2017,11,26,12,28,9.30
2017,11,26,12,29,9.40
2017,11,26,12,30,9.40
2017,11,26,12,31,9.40
2017,11,26,12,32,9.40
2017,11,26,12,33,9.40
2017,11,26,12,34,9.40
2017,11,26,12,35,9.40
2017,11,26,12,36,9.40
2017,11,26,12,37,9.40
2017,11,26,12,38,9.50
2017,11,26,12,39,9.50
2017,11,26,12,40,9.50
2017,11,26,12,41,9.60
2017,11,26,12,42,9.60
2017,11,26,12,43,9.60
2017,11,26,12,44,9.60
2017,11,26,12,45,9.60
2017,11,26,12,46,9.60
2017,11,26,12,47,9.60
2017,11,26,12,48,9.60
2017,11,26,12,49,9.70
2017,11,26,12,50,9.70
2017,11,26,12,51,9.70
2017,11,26,12,52,9.70
2017,11,26,12,53,9.70
2017,11,26,12,54,9.70
2017,11,26,12,55,9.70
2017,11,26,12,56,9.80
2017,11,26,12,57,9.80
2017,11,26,12,58,9.80
2017,11,26,12,59,9.80
2017,11,26,13,00,9.80
2017,11,26,13,01,9.80
2017,11,26,13,02,9.80
2017,11,26,13,03,9.80
2017,11,26,13,04,9.80
2017,11,26,13,05,9.80
2017,11,26,13,06,9.80
2017,11,26,13,07,9.80
2017,11,26,13,08,9.80
2017,11,26,13,09,9.80
2017,11,26,13,10,9.80
2017,11,26,13,11,9.80
2017,11,26,13,12,9.80
2017,11,26,13,13,9.80
2017,11,26,13,14,9.80
2017,11,26,13,15,9.80
2017,11,26,13,16,9.80
2017,11,26,13,17,9.80
2017,11,26,13,18,9.80
2017,11,26,13,19,9.80
2017,11,26,13,20,9.80
2017,11,26,13,21,9.80
2017,11,26,13,22,9.80
2017,11,26,13,23,9.80
2017,11,26,13,24,9.80
2017,11,26,13,25,9.80
2017,11,26,13,26,9.80
2017,11,26,13,27,9.80
2017,11,26,13,28,9.80
2017,11,26,13,29,9.80
2017,11,26,13,30,9.80
2017,11,26,13,31,9.80
2017,11,26,13,32,9.80
2017,11,26,13,33,9.80
2017,11,26,13,34,9.80
2017,11,26,13,35,9.70
2017,11,26,13,36,9.70
2017,11,26,13,37,9.70
2017,11,26,13,38,9.70
2017,11,26,13,39,9.70
2017,11,26,13,40,9.70
2017,11,26,13,41,9.70
2017,11,26,13,42,9.70
2017,11,26,13,43,9.70
2017,11,26,13,44,9.60
2017,11,26,13,45,9.60
2017,11,26,13,46,9.60
2017,11,26,13,47,9.60
2017,11,26,13,48,9.60
2017,11,26,13,49,9.60
2017,11,26,13,50,9.60
2017,11,26,13,51,9.60
2017,11,26,13,52,9.60
2017,11,26,13,53,9.60
2017,11,26,13,54,9.60
2017,11,26,13,55,9.60
2017,11,26,13,56,9.60
2017,11,26,13,57,9.60
2017,11,26,13,58,9.60
2017,11,26,13,59,9.60
2017,11,26,14,00,9.60
2017,11,26,14,01,9.60
2017,11,26,14,02,9.60
2017,11,26,14,03,9.60
2017,11,26,14,04,9.60
2017,11,26,14,05,9.60
2017,11,26,14,06,9.60
2017,11,26,14,07,9.60
2017,11,26,14,08,9.60
2017,11,26,14,09,9.60
2017,11,26,14,10,9.60
2017,11,26,14,11,9.60
2017,11,26,14,12,9.60
2017,11,26,14,13,9.60
2017,11,26,14,14,9.60
2017,11,26,14,15,9.60
2017,11,26,14,16,9.60
2017,11,26,14,17,9.60
2017,11,26,14,18,9.60
2017,11,26,14,19,9.60
2017,11,26,14,20,9.50
2017,11,26,14,21,9.50
2017,11,26,14,22,9.50
2017,11,26,14,23,9.50
2017,11,26,14,24,9.40
2017,11,26,14,25,9.40
2017,11,26,14,26,9.40
2017,11,26,14,27,9.40
2017,11,26,14,28,9.40
2017,11,26,14,29,9.40
2017,11,26,14,30,9.40
2017,11,26,14,31,9.40
2017,11,26,14,32,9.50
2017,11,26,14,33,9.50
2017,11,26,14,34,9.60
2017,11,26,14,35,9.60
2017,11,26,14,36,9.60
2017,11,26,14,37,9.60
2017,11,26,14,38,9.60
2017,11,26,14,39,9.60
2017,11,26,14,40,9.60
2017,11,26,14,41,9.60
2017,11,26,14,42,9.60
2017,11,26,14,43,9.60
2017,11,26,14,44,9.60
2017,11,26,14,45,9.60
2017,11,26,14,46,9.60
2017,11,26,14,47,9.60
2017,11,26,14,48,9.60
2017,11,26,14,49,9.60
2017,11,26,14,50,9.60
2017,11,26,14,51,9.60
2017,11,26,14,52,9.60
2017,11,26,14,53,9.60
2017,11,26,14,54,9.60
2017,11,26,14,55,9.60
2017,11,26,14,56,9.60
2017,11,26,14,57,9.60
2017,11,26,14,58,9.60
2017,11,26,14,59,9.60
2017,11,26,15,00,9.60
2017,11,26,15,01,9.60
2017,11,26,15,02,9.60
2017,11,26,15,03,9.60
2017,11,26,15,04,9.60
2017,11,26,15,05,9.60
2017,11,26,15,06,9.60
2017,11,26,15,07,9.60
2017,11,26,15,08,9.60
2017,11,26,15,09,9.60
2017,11,26,15,10,9.60
2017,11,26,15,11,9.60
2017,11,26,15,12,9.60
2017,11,26,15,13,9.50
2017,11,26,15,14,9.50
2017,11,26,15,15,9.60
2017,11,26,15,16,9.60
2017,11,26,15,17,9.50
2017,11,26,15,18,9.50
2017,11,26,15,19,9.50
2017,11,26,15,20,9.40
2017,11,26,15,21,9.40
2017,11,26,15,22,9.40
2017,11,26,15,23,9.40
2017,11,26,15,24,9.40
2017,11,26,15,25,9.40
2017,11,26,15,26,9.40
2017,11,26,15,27,9.40
2017,11,26,15,28,9.40
2017,11,26,15,29,9.40
2017,11,26,15,30,9.40
2017,11,26,15,31,9.40
2017,11,26,15,32,9.40
2017,11,26,15,33,9.40
2017,11,26,15,34,9.40
2017,11,26,15,35,9.40
2017,11,26,15,36,9.40
2017,11,26,15,37,9.40
2017,11,26,15,38,9.40
2017,11,26,15,39,9.40
2017,11,26,15,40,9.30
2017,11,26,15,41,9.30
2017,11,26,15,42,9.30
2017,11,26,15,43,9.30
2017,11,26,15,44,9.30
2017,11,26,15,45,9.30
2017,11,26,15,46,9.30
2017,11,26,15,47,9.30
2017,11,26,15,48,9.30
2017,11,26,15,49,9.30
2017,11,26,15,50,9.30
2017,11,26,15,51,9.30
2017,11,26,15,52,9.20
2017,11,26,15,53,9.20
2017,11,26,15,54,9.20
2017,11,26,15,55,9.20
2017,11,26,15,56,9.20
2017,11,26,15,57,9.20
2017,11,26,15,58,9.20
2017,11,26,15,59,9.20
2017,11,26,16,00,9.20
2017,11,26,16,01,9.20
2017,11,26,16,02,9.20
2017,11,26,16,03,9.20
2017,11,26,16,04,9.20
2017,11,26,16,05,9.20
2017,11,26,16,06,9.20
2017,11,26,16,07,9.20
2017,11,26,16,08,9.20
2017,11,26,16,09,9.20
2017,11,26,16,10,9.10
2017,11,26,16,11,9.10
2017,11,26,16,12,9.10
2017,11,26,16,13,9.00
2017,11,26,16,14,9.00
2017,11,26,16,15,8.90
2017,11,26,16,16,8.90
2017,11,26,16,17,8.90
2017,11,26,16,18,8.90
2017,11,26,16,19,8.80
2017,11,26,16,20,8.80
2017,11,26,16,21,8.70
2017,11,26,16,22,8.70
2017,11,26,16,23,8.70
2017,11,26,16,24,8.60
2017,11,26,16,25,8.60
2017,11,26,16,26,8.60
2017,11,26,16,27,8.50
2017,11,26,16,28,8.50
2017,11,26,16,29,8.50
2017,11,26,16,30,8.40
2017,11,26,16,31,8.40
2017,11,26,16,32,8.40
2017,11,26,16,33,8.40
2017,11,26,16,34,8.30
2017,11,26,16,35,8.30
2017,11,26,16,36,8.30
2017,11,26,16,37,8.20
2017,11,26,16,38,8.20
2017,11,26,16,39,8.10
2017,11,26,16,40,8.00
2017,11,26,16,41,8.00
2017,11,26,16,42,7.90
2017,11,26,16,43,7.80
2017,11,26,16,44,7.80
2017,11,26,16,45,7.70
2017,11,26,16,46,7.80
2017,11,26,16,47,7.80
2017,11,26,16,48,7.80
2017,11,26,16,49,7.60
2017,11,26,16,50,7.50
2017,11,26,16,51,7.50
2017,11,26,16,52,7.40
2017,11,26,16,53,7.20
2017,11,26,16,54,7.20
2017,11,26,16,55,7.20
2017,11,26,16,56,7.20
2017,11,26,16,57,7.10
2017,11,26,16,58,7.10
2017,11,26,16,59,7.10
2017,11,26,17,00,7.20
2017,11,26,17,01,7.20
2017,11,26,17,02,7.10
2017,11,26,17,03,7.00
2017,11,26,17,04,7.00
2017,11,26,17,05,6.90
2017,11,26,17,06,6.80
2017,11,26,17,07,6.70
2017,11,26,17,08,6.70
2017,11,26,17,09,6.60
2017,11,26,17,10,6.50
2017,11,26,17,11,6.40
2017,11,26,17,12,6.40
2017,11,26,17,13,6.30
2017,11,26,17,14,6.30
2017,11,26,17,15,6.30
2017,11,26,17,16,6.20
2017,11,26,17,17,6.20
2017,11,26,17,18,6.20
2017,11,26,17,19,6.10
2017,11,26,17,20,6.10
2017,11,26,17,21,6.10
2017,11,26,17,22,6.00
2017,11,26,17,23,6.00
2017,11,26,17,24,6.00
2017,11,26,17,25,5.90
2017,11,26,17,26,5.90
2017,11,26,17,27,5.90
2017,11,26,17,28,5.90
2017,11,26,17,29,5.90
2017,11,26,17,30,5.90
2017,11,26,17,31,5.80
2017,11,26,17,32,5.80
2017,11,26,17,33,5.80
2017,11,26,17,34,5.80
2017,11,26,17,35,5.80
2017,11,26,17,36,5.80
2017,11,26,17,37,5.80
2017,11,26,17,38,5.90
2017,11,26,17,39,5.90
2017,11,26,17,40,5.90
2017,11,26,17,41,5.90
2017,11,26,17,42,5.90